NOAA 16 DEB, 41523

Orbit data source: Space-Track

NOAA 16 DEB, 41523 is space debris in SSO originally from a launch on Thu, 21 Sep 2000 UTC launched from the Air Force Western Test Range (AFWTR). Debris objects in space refer to the collection of defunct objects orbiting the Earth. Examples of debris include non-operational satellites, rocket bodies, and fragments generated from explosions, collisions, or faulty payload assembly.

Loading next visibility...
Identifier
41523, 2000-055MX
Orbit
SSO
Country
Flag of USUS
Related business
Manufacturer
Unknown
Mission
Spacecraft
Bus & Motor
Unknown
Mass
Unknown
Launch date (UTC)
2000-09-21 (25 years ago)
Launch vehicle
Unknown
Launch site
Air Force Western Test Range (AFWTR)
Object type
Payload
Rocket body
Debris
Shape & HBR
Unknown shape, 0.1 m
Radar Cross Section
Small (<0.1 m²)

Expand to show TLE details & history
Last TLE update: 3 days ago

TLE from 3 days ago
0 NOAA 16 DEB
1 41523U 00055MX  26034.68216646  .00003936  00000-0  16499-2 0  9991
2 41523  98.7215 116.8784 0010114 105.0155 255.2145 14.26517964505322
Epoch: 2026-02-03T16:22Z
TLE epoch observation values (Epoch: 2026-02-03T16:22:19.182Z)
Latitude
-0.00001°
Longitude
97.43888°
Altitude
808.177 km
Speed
7.448 km/s
True Right ascension
07h 47m 30s
True Declination
0° 00' 00"
Sunlit
Object was in full shadow at epoch
Visualization orbit readout
Latitude
Unknown
Longitude
Unknown
Altitude
Unknown
Speed
Unknown
Apparent Right ascension
Unknown
Apparent Declination
Unknown
Sunlit
N/A
Visualization observer readout
Local Sidereal Time
15:04:58
Azimuth
Unknown
Elevation
Unknown
Doppler factor
Unknown
Orbital elements
Apogee altitude
807.805 km
Perigee altitude
793.283 km
Semi-major axis
7,178.681 km
Eccentricity
0.00101
Inclination
98.7215°
RAAN
116.8784°
Arg. of periapsis
105.0155°
True anomaly
255.10248°
Mean anomaly
255.2145°
Eccentric anomaly
255.15848°
Mean motion
3.56842 °/min
Orbital period
100.88 mins
BSTAR
0.0016499
Loading maneuver chart data...
Computing Atmospheric mass density...
Loading historical data...
Loading historical data...
Loading historical data...
Loading historical data...
Loading historical data...
Loading historical data...
Loading historical data...

Documentation

Showing up to 5 results
|